Weather History for Concord, NC

Change the Weather History Date:

Saturday, October 25, 2014

  Actual Average (KCLT) Record (KCLT)
Temperature  
Mean Temperature 56 °F 57 °F  
Max Temperature 75 °F 69 °F 84 °F (1931)
Min Temperature 37 °F 46 °F 27 °F (2006)
Degree Days  
Heating Degree Days 9 8  
Month to date heating degree days 130  
Since 1 July heating degree days 153  
Cooling Degree Days 0 1  
Month to date cooling degree days 38  
Year to date cooling degree days 1513  
Growing Degree Days 6 (Base 50)    
Moisture  
Dew Point 39 °F    
Average Humidity 76    
Maximum Humidity 100    
Minimum Humidity 16    
Precipitation  
Precipitation 0.00 in 0.09 in 2.65 in (1990)
Month to date precipitation 2.81  
Year to date precipitation 34.65  
Snow  
Snow 0.00 in 0.00 in 0.00 in ()
Month to date snowfall 0.0  
Since 1 July snowfall 0.0  
Since 1 September snowfall 0.0  
Snow Depth -    
Sea Level Pressure  
Sea Level Pressure 30.03 in    
Wind  
Wind Speed 0 mph (West)    
Max Wind Speed 7 mph    
Max Gust Speed -    
Visibility 8 miles    
Events      
T = Trace of Precipitation, MM = Missing Value Source: NWS Daily Summary

Daily Weather History Graph

Daily Weather History Graph

Search for Another Location

Airport:

Trip Planner

Search our weather history database for the weather conditions in past years. The results will help you decide how hot, cold, wet, or windy it might be!

Date:

Astronomy

Oct. 25, 2014 Rise Set
Actual Time 7:37 AM EDT 6:35 PM EDT
Civil Twilight 7:11 AM EDT 7:01 PM EDT
Nautical Twilight 6:42 AM EDT 7:31 PM EDT
Astronomical Twilight 6:12 AM EDT 8:00 PM EDT
Moon 9:12 AM EDT (10/25) 8:00 PM EDT (10/25)
Length of Visible Light 11h 49m
Length of Day
10h 57m
Waxing Crescent, 3% of the Moon is Illuminated
Oct 25
Waxing Crescent
Oct 30
First Quarter
Nov 6
Full
Nov 14
Last Quarter
Nov 22
New

Hourly Weather History & Observations

Time (EDT) Temp. Dew Point Humidity Pressure Visibility Wind Dir Wind Speed Gust Speed Precip Events Conditions
12:15 AM 44.6 °F 42.8 °F 93% 30.04 in 10.0 mi Calm Calm - N/A   Clear
12:35 AM 42.8 °F 42.8 °F 100% 30.05 in 10.0 mi Calm Calm - N/A   Clear
12:55 AM 42.8 °F 42.8 °F 100% 30.04 in 7.0 mi Calm Calm - N/A   Clear
1:15 AM 42.8 °F 42.8 °F 100% 30.04 in 5.0 mi Calm Calm - N/A   Clear
1:35 AM 41.0 °F 39.2 °F 93% 30.04 in 3.0 mi Calm Calm - N/A   Clear
1:55 AM 41.0 °F 41.0 °F 100% 30.04 in 7.0 mi Calm Calm - N/A   Clear
2:15 AM 42.8 °F 41.0 °F 93% 30.04 in 4.0 mi Calm Calm - N/A   Clear
2:35 AM 41.0 °F 41.0 °F 100% 30.03 in 5.0 mi Calm Calm - N/A   Clear
2:55 AM 41.0 °F 41.0 °F 100% 30.03 in 5.0 mi Calm Calm - N/A   Clear
3:15 AM 41.0 °F 39.2 °F 93% 30.04 in 5.0 mi Calm Calm - N/A   Clear
3:35 AM 41.0 °F 41.0 °F 100% 30.03 in 3.0 mi Calm Calm - N/A   Clear
3:55 AM 41.0 °F 41.0 °F 100% 30.03 in 7.0 mi Calm Calm - N/A   Clear
4:15 AM 39.2 °F 37.4 °F 93% 30.03 in 4.0 mi Calm Calm - N/A   Clear
4:35 AM 41.0 °F 39.2 °F 93% 30.04 in 10.0 mi Calm Calm - N/A   Clear
4:55 AM 39.2 °F 37.4 °F 93% 30.04 in 7.0 mi Calm Calm - N/A   Clear
5:15 AM 41.0 °F 39.2 °F 93% 30.04 in 4.0 mi Calm Calm - N/A   Clear
5:35 AM 39.2 °F 37.4 °F 93% 30.04 in 2.0 mi Calm Calm - N/A   Clear
5:55 AM 39.2 °F 37.4 °F 93% 30.05 in 7.0 mi Calm Calm - N/A   Clear
6:15 AM 37.4 °F 37.4 °F 100% 30.05 in 2.0 mi Calm Calm - N/A   Clear
6:35 AM 37.4 °F 35.6 °F 93% 30.06 in 1.0 mi Calm Calm - N/A   Mist
6:50 AM 37.4 °F 37.4 °F 100% 30.06 in 7.0 mi Calm Calm - N/A   Clear
7:55 AM 37.4 °F 37.4 °F 100% 30.07 in 7.0 mi Calm Calm - N/A   Clear
8:52 AM 44.6 °F 42.8 °F 93% 30.08 in 10.0 mi Calm Calm - N/A   Clear
9:52 AM 53.6 °F 44.6 °F 72% 30.09 in 10.0 mi Calm Calm - N/A   Clear
10:55 AM 62.6 °F 42.8 °F 48% 30.09 in 10.0 mi North 4.6 mph - N/A   Clear
11:52 AM 66.2 °F 39.2 °F 37% 30.07 in 10.0 mi Calm Calm - N/A   Clear
12:50 PM 69.8 °F 32.0 °F 25% 30.05 in 10.0 mi Calm Calm - N/A   Clear
1:51 PM 73.4 °F 28.4 °F 19% 30.02 in 10.0 mi WSW 4.6 mph - N/A   Clear
2:51 PM 73.4 °F 24.8 °F 16% 30.00 in 10.0 mi WNW 6.9 mph - N/A   Clear
3:55 PM 75.2 °F 30.2 °F 19% 29.98 in 10.0 mi WSW 6.9 mph - N/A   Clear
4:55 PM 73.4 °F 30.2 °F 20% 29.97 in 10.0 mi WSW 6.9 mph - N/A   Clear
6:55 PM 64.4 °F 42.8 °F 45% 29.98 in 10.0 mi Calm Calm - N/A   Clear
7:55 PM 59.0 °F 42.8 °F 55% 29.97 in 10.0 mi Calm Calm - N/A   Clear
8:55 PM 57.2 °F 42.8 °F 59% 29.98 in 10.0 mi Calm Calm - N/A   Clear
9:55 PM 57.2 °F 41.0 °F 55% 29.97 in 10.0 mi Calm Calm - N/A   Clear
10:55 PM 53.6 °F 42.8 °F 67% 29.96 in 10.0 mi Calm Calm - N/A   Clear
11:15 PM 51.8 °F 41.0 °F 67% 29.96 in 10.0 mi Calm Calm - N/A   Clear
11:35 PM 51.8 °F 41.0 °F 67% 29.96 in 10.0 mi Calm Calm - N/A   Clear
11:55 PM 51.8 °F 41.0 °F 67% 29.96 in 10.0 mi Calm Calm - N/A   Clear